BEIDOU-3 M12 (C26)

Last updated on Jan. 24, 2021, 6:19 a.m. UTC

1 43603U 18067B   21023.91131898  .00000082  00000-0  00000-0 0  9996
2 43603  54.5329 248.0884 0004827 355.5157 327.2356  1.86231420 16442
UTC
Height (km)
Latitude
Longitude
Inclination
Orbital Period
UTC large
Height (km)
Speed (km/s)
/
Latitude / Longitude
Inclination (degrees)
Orbital Period (minutes)
Azimuth
Elevation
Range (km)
Doppler Factor
iOS Compass Heading
iOS Angle

Next 30 passes for location: Hong Kong

Rise time Rise Azimuth (degrees) Set time Set Azimuth (degrees) Duration Max altitude (degrees)

No matching passes for this satellites